START_TIME,STEP,MOV.,H8,t_acc.,H43,t_acc.,M25,t_acc.,H9,t_acc.
1979-03-02 18:00:18.980 ,0,0,0.,12.0,0.,12.0,0.,12.0,0.,12.0
1979-03-02 18:00:30.980 ,0,0,0.,12.0,0.,12.0,0.,12.0,0.,12.0
1979-03-02 18:00:42.980 ,0,0,0.,12.0,0.,12.0,0.,12.0,0.,12.0
1979-03-02 18:00:54.980 ,0,0,0.,12.0,0.,12.0,0.,12.0,0.,12.0
1979-03-02 18:01:06.970 ,1,0,0.,12.0,0.,12.0,0.,12.0,0.,12.0
1979-03-02 18:01:18.980 ,1,0,0.,12.0,0.,12.0,0.,12.0,0.,12.0
1979-03-02 18:01:30.970 ,2,0,0.,12.0,0.,12.0,0.,12.0,0.,12.0
1979-03-02 18:01:42.980 ,2,0,0.,12.0,0.,12.0,0.,12.0,0.,12.0
1979-03-02 18:01:54.980 ,3,0,0.,12.0,0.,12.0,0.,12.0,0.,12.0
1979-03-02 18:02:06.980 ,3,0,0.,12.0,0.,12.0,0.,12.0,0.,12.0
1979-03-02 18:02:18.980 ,4,0,0.,12.0,0.,12.0,0.,12.0,0.,12.0
1979-03-02 18:02:30.980 ,4,0,0.,12.0,0.,12.0,0.,12.0,0.,12.0
1979-03-02 18:02:42.980 ,5,0,0.,12.0,0.,12.0,0.,12.0,0.,12.0
1979-03-02 18:02:54.980 ,5,0,0.,12.0,0.,12.0,0.,12.0,0.,12.0
1979-03-02 18:03:06.980 ,6,0,0.,12.0,0.,12.0,0.,12.0,0.,12.0
1979-03-02 18:03:18.980 ,6,0,1.,12.0,0.,12.0,0.,12.0,0.,12.0
1979-03-02 18:03:30.980 ,7,0,0.,12.0,0.,12.0,0.,12.0,0.,12.0
1979-03-02 18:03:42.980 ,7,0,0.,12.0,0.,12.0,0.,12.0,0.,12.0
1979-03-02 18:03:54.980 ,7,0,0.,12.0,0.,12.0,0.,12.0,0.,12.0
1979-03-02 18:04:06.980 ,7,0,0.,12.0,0.,12.0,0.,12.0,0.,12.0
1979-03-02 18:04:18.980 ,6,0,0.,12.0,0.,12.0,0.,12.0,0.,12.0
1979-03-02 18:04:30.980 ,6,0,0.,12.0,0.,12.0,0.,12.0,0.,12.0
1979-03-02 18:04:42.980 ,5,0,0.,12.0,0.,12.0,0.,12.0,0.,12.0
1979-03-02 18:04:54.980 ,5,0,0.,12.0,0.,12.0,0.,12.0,0.,12.0
1979-03-02 18:05:06.980 ,4,0,0.,12.0,0.,12.0,0.,12.0,0.,12.0
1979-03-02 18:05:18.980 ,4,0,0.,12.0,0.,12.0,0.,12.0,0.,12.0
1979-03-02 18:05:30.980 ,3,0,0.,12.0,0.,12.0,0.,12.0,0.,12.0
1979-03-02 18:05:42.980 ,3,0,0.,12.0,0.,12.0,0.,12.0,0.,12.0
1979-03-02 18:05:54.980 ,2,0,0.,12.0,0.,12.0,0.,12.0,0.,12.0
1979-03-02 18:06:06.980 ,2,0,0.,12.0,0.,12.0,0.,12.0,0.,12.0
1979-03-02 18:06:18.980 ,1,0,0.,12.0,0.,12.0,0.,12.0,0.,12.0
1979-03-02 18:06:30.980 ,1,0,0.,12.0,0.,12.0,0.,12.0,0.,12.0
1979-03-02 18:06:42.980 ,0,0,0.,12.0,0.,12.0,0.,12.0,0.,12.0
1979-03-02 18:06:54.980 ,0,0,0.,12.0,0.,12.0,0.,12.0,0.,12.0
1979-03-02 18:07:06.980 ,0,0,0.,12.0,0.,12.0,0.,12.0,0.,12.0
1979-03-02 18:07:18.980 ,0,0,0.,12.0,0.,12.0,0.,12.0,0.,12.0
1979-03-02 18:07:30.980 ,1,0,0.,12.0,0.,12.0,0.,12.0,0.,12.0
1979-03-02 18:07:42.980 ,1,0,0.,12.0,0.,12.0,0.,12.0,0.,12.0
1979-03-02 18:07:54.980 ,2,0,0.,12.0,0.,12.0,0.,12.0,0.,12.0
1979-03-02 18:08:06.980 ,2,0,0.,12.0,0.,12.0,0.,12.0,0.,12.0
1979-03-02 18:08:18.980 ,3,0,0.,12.0,0.,12.0,0.,12.0,0.,12.0
1979-03-02 18:08:30.980 ,3,0,1.,12.0,0.,12.0,0.,12.0,0.,12.0
1979-03-02 18:08:42.970 ,4,0,0.,12.0,0.,12.0,0.,12.0,0.,12.0
1979-03-02 18:08:54.970 ,4,0,0.,12.0,0.,12.0,0.,12.0,0.,12.0
1979-03-02 18:09:06.970 ,5,0,0.,12.0,0.,12.0,0.,12.0,0.,12.0
1979-03-02 18:09:18.970 ,5,0,0.,12.0,0.,12.0,0.,12.0,0.,12.0
1979-03-02 18:09:30.970 ,6,0,0.,12.0,0.,12.0,0.,12.0,0.,12.0
1979-03-02 18:09:42.970 ,6,0,0.,12.0,0.,12.0,0.,12.0,0.,12.0
1979-03-02 18:09:54.970 ,7,0,0.,12.0,0.,12.0,0.,12.0,0.,12.0
1979-03-02 18:10:06.970 ,7,0,0.,12.0,0.,12.0,0.,12.0,0.,12.0
1979-03-02 18:10:18.970 ,7,0,0.,12.0,0.,12.0,0.,12.0,0.,12.0
1979-03-02 18:10:30.970 ,7,0,0.,12.0,0.,12.0,0.,12.0,0.,12.0
1979-03-02 18:10:42.970 ,6,0,0.,12.0,0.,12.0,0.,12.0,0.,12.0
1979-03-02 18:10:54.970 ,6,0,0.,12.0,0.,12.0,0.,12.0,0.,12.0
1979-03-02 18:11:06.970 ,5,0,0.,12.0,0.,12.0,0.,12.0,0.,12.0
1979-03-02 18:11:18.970 ,5,0,0.,12.0,0.,12.0,0.,12.0,1.,12.0
1979-03-02 18:11:30.970 ,4,0,0.,12.0,0.,12.0,0.,12.0,0.,12.0
1979-03-02 18:11:42.970 ,4,0,0.,12.0,0.,12.0,0.,12.0,0.,12.0
1979-03-02 18:11:54.980 ,3,0,0.,12.0,0.,12.0,0.,12.0,0.,12.0
1979-03-02 18:12:06.980 ,3,0,0.,12.0,0.,12.0,0.,12.0,0.,12.0
1979-03-02 18:12:18.980 ,2,0,0.,12.0,0.,12.0,0.,12.0,0.,12.0
1979-03-02 18:12:30.980 ,2,0,0.,12.0,0.,12.0,0.,12.0,0.,12.0
1979-03-02 18:12:42.980 ,1,0,0.,12.0,0.,12.0,0.,12.0,0.,12.0
1979-03-02 18:12:54.980 ,1,0,0.,12.0,0.,12.0,0.,12.0,0.,12.0
1979-03-02 18:13:06.980 ,0,0,0.,12.0,0.,12.0,0.,12.0,0.,12.0
1979-03-02 18:13:18.980 ,0,0,0.,12.0,0.,12.0,0.,12.0,0.,12.0
1979-03-02 18:13:30.980 ,0,0,0.,12.0,0.,12.0,0.,12.0,0.,12.0
1979-03-02 18:13:42.980 ,0,0,0.,12.0,0.,12.0,0.,12.0,0.,12.0
1979-03-02 18:13:54.980 ,1,0,0.,12.0,0.,12.0,0.,12.0,0.,12.0
1979-03-02 18:14:06.980 ,1,0,0.,12.0,0.,12.0,0.,12.0,0.,12.0
1979-03-02 18:14:18.980 ,2,0,0.,12.0,0.,12.0,0.,12.0,0.,12.0
1979-03-02 18:14:30.980 ,2,0,0.,12.0,0.,12.0,0.,12.0,0.,12.0
1979-03-02 18:14:42.980 ,3,0,0.,12.0,0.,12.0,0.,12.0,0.,12.0
1979-03-02 18:14:54.980 ,3,0,0.,12.0,0.,12.0,0.,12.0,0.,12.0
1979-03-02 18:15:06.980 ,4,0,0.,12.0,0.,12.0,0.,12.0,0.,12.0
1979-03-02 18:15:18.980 ,4,0,0.,12.0,0.,12.0,0.,12.0,0.,12.0
1979-03-02 18:15:30.980 ,5,0,0.,12.0,0.,12.0,0.,12.0,0.,12.0
1979-03-02 18:15:42.980 ,5,0,0.,12.0,0.,12.0,0.,12.0,0.,12.0
1979-03-02 18:15:54.980 ,6,0,0.,12.0,0.,12.0,0.,12.0,0.,12.0
1979-03-02 18:16:06.980 ,6,0,0.,12.0,0.,12.0,0.,12.0,0.,12.0
1979-03-02 18:16:18.980 ,7,0,0.,12.0,0.,12.0,0.,12.0,0.,12.0
1979-03-02 18:16:30.980 ,7,0,0.,12.0,0.,12.0,0.,12.0,0.,12.0
1979-03-02 18:16:42.980 ,7,0,0.,12.0,0.,12.0,0.,12.0,0.,12.0
1979-03-02 18:16:54.980 ,7,0,0.,12.0,0.,12.0,0.,12.0,0.,12.0
1979-03-02 18:17:06.980 ,6,0,0.,12.0,0.,12.0,0.,12.0,0.,12.0
1979-03-02 18:17:18.980 ,6,0,0.,12.0,0.,12.0,0.,12.0,0.,12.0
1979-03-02 18:17:30.980 ,5,0,0.,12.0,0.,12.0,0.,12.0,0.,12.0
1979-03-02 18:17:42.980 ,5,0,0.,12.0,0.,12.0,0.,12.0,0.,12.0
1979-03-02 18:17:54.980 ,4,0,0.,12.0,0.,12.0,0.,12.0,0.,12.0
1979-03-02 18:18:06.980 ,4,0,0.,12.0,0.,12.0,0.,12.0,0.,12.0
1979-03-02 18:18:18.980 ,3,0,0.,12.0,0.,12.0,0.,12.0,0.,12.0
1979-03-02 18:18:30.980 ,3,0,0.,12.0,0.,12.0,0.,12.0,0.,12.0
1979-03-02 18:18:42.980 ,2,0,0.,12.0,0.,12.0,0.,12.0,0.,12.0
1979-03-02 18:18:54.980 ,2,0,0.,12.0,0.,12.0,0.,12.0,0.,12.0
1979-03-02 18:19:06.980 ,1,0,0.,12.0,0.,12.0,0.,12.0,0.,12.0
1979-03-02 18:19:18.980 ,1,0,0.,12.0,0.,12.0,0.,12.0,0.,12.0
1979-03-02 18:19:30.980 ,0,0,0.,12.0,0.,12.0,0.,12.0,0.,12.0
1979-03-02 18:19:42.980 ,0,0,0.,12.0,0.,12.0,0.,12.0,0.,12.0
1979-03-02 18:19:54.980 ,0,0,0.,12.0,0.,12.0,0.,12.0,0.,12.0
1979-03-02 18:20:06.980 ,0,0,0.,12.0,0.,12.0,0.,12.0,0.,12.0
1979-03-02 18:20:18.980 ,1,0,0.,12.0,0.,12.0,0.,12.0,0.,12.0
1979-03-02 18:20:30.980 ,1,0,0.,12.0,0.,12.0,0.,12.0,0.,12.0
1979-03-02 18:20:42.980 ,2,0,0.,12.0,0.,12.0,0.,12.0,0.,12.0
1979-03-02 18:20:54.980 ,2,0,0.,12.0,0.,12.0,0.,12.0,0.,12.0
1979-03-02 18:21:06.980 ,3,0,0.,12.0,0.,12.0,0.,12.0,0.,12.0
1979-03-02 18:21:18.980 ,3,0,0.,12.0,0.,12.0,0.,12.0,0.,12.0
1979-03-02 18:21:30.980 ,4,0,0.,12.0,0.,12.0,0.,12.0,0.,12.0
1979-03-02 18:21:42.980 ,4,0,0.,12.0,0.,12.0,0.,12.0,0.,12.0
1979-03-02 18:21:54.980 ,5,0,0.,12.0,0.,12.0,0.,12.0,0.,12.0
1979-03-02 18:22:06.980 ,5,0,0.,12.0,0.,12.0,0.,12.0,0.,12.0
1979-03-02 18:22:18.980 ,6,0,0.,12.0,0.,12.0,0.,12.0,0.,12.0
1979-03-02 18:22:30.980 ,6,0,0.,12.0,0.,12.0,0.,12.0,0.,12.0
1979-03-02 18:22:42.980 ,7,0,0.,12.0,0.,12.0,0.,12.0,0.,12.0
1979-03-02 18:22:54.980 ,7,0,0.,12.0,0.,12.0,0.,12.0,0.,12.0
1979-03-02 18:23:06.980 ,7,0,0.,12.0,0.,12.0,0.,12.0,0.,12.0
1979-03-02 18:23:18.980 ,7,0,0.,12.0,0.,12.0,0.,12.0,0.,12.0
1979-03-02 18:23:30.980 ,6,0,0.,12.0,0.,12.0,0.,12.0,0.,12.0
1979-03-02 18:23:42.980 ,6,0,0.,12.0,0.,12.0,0.,12.0,0.,12.0
1979-03-02 18:23:54.980 ,5,0,0.,12.0,0.,12.0,0.,12.0,0.,12.0
1979-03-02 18:24:06.980 ,5,0,0.,12.0,0.,12.0,0.,12.0,0.,12.0
1979-03-02 18:24:18.980 ,4,0,0.,12.0,0.,12.0,0.,12.0,0.,12.0
1979-03-02 18:24:30.980 ,4,0,0.,12.0,0.,12.0,0.,12.0,0.,12.0
1979-03-02 18:24:42.980 ,3,0,0.,12.0,0.,12.0,0.,12.0,0.,12.0
1979-03-02 18:24:54.980 ,3,0,0.,12.0,0.,12.0,0.,12.0,0.,12.0
1979-03-02 18:25:06.980 ,2,0,0.,12.0,0.,12.0,0.,12.0,0.,12.0
1979-03-02 18:25:18.980 ,2,0,0.,12.0,0.,12.0,0.,12.0,0.,12.0
1979-03-02 18:25:30.980 ,1,0,0.,12.0,0.,12.0,0.,12.0,0.,12.0
1979-03-02 18:25:42.980 ,1,0,0.,12.0,0.,12.0,0.,12.0,0.,12.0
1979-03-02 18:25:54.980 ,0,0,0.,12.0,0.,12.0,0.,12.0,0.,12.0
1979-03-02 18:26:06.980 ,0,0,0.,12.0,0.,12.0,0.,12.0,0.,12.0
1979-03-02 18:26:18.980 ,0,0,0.,12.0,0.,12.0,0.,12.0,0.,12.0
1979-03-02 18:26:30.980 ,0,0,0.,12.0,0.,12.0,0.,12.0,0.,12.0
1979-03-02 18:26:42.980 ,1,0,0.,12.0,0.,12.0,0.,12.0,0.,12.0
1979-03-02 18:26:54.980 ,1,0,0.,12.0,0.,12.0,0.,12.0,0.,12.0
1979-03-02 18:27:06.980 ,2,0,0.,12.0,0.,12.0,0.,12.0,0.,12.0
1979-03-02 18:27:18.980 ,2,0,0.,12.0,0.,12.0,0.,12.0,0.,12.0
1979-03-02 18:27:30.980 ,3,0,0.,12.0,0.,12.0,0.,12.0,0.,12.0
1979-03-02 18:27:42.980 ,3,0,0.,12.0,0.,12.0,0.,12.0,0.,12.0
1979-03-02 18:27:54.980 ,4,0,0.,12.0,0.,12.0,0.,12.0,0.,12.0
1979-03-02 18:28:06.980 ,4,0,0.,12.0,0.,12.0,0.,12.0,0.,12.0
1979-03-02 18:28:18.980 ,5,0,0.,12.0,0.,12.0,0.,12.0,0.,12.0
1979-03-02 18:28:30.980 ,5,0,0.,12.0,0.,12.0,0.,12.0,0.,12.0
1979-03-02 18:28:42.980 ,6,0,0.,12.0,0.,12.0,0.,12.0,0.,12.0
1979-03-02 18:28:54.980 ,6,0,1.,12.0,0.,12.0,0.,12.0,0.,12.0
1979-03-02 18:29:06.980 ,7,0,0.,12.0,0.,12.0,0.,12.0,0.,12.0
1979-03-02 18:29:18.980 ,7,0,0.,12.0,0.,12.0,0.,12.0,0.,12.0
1979-03-02 18:29:30.980 ,7,0,0.,12.0,0.,12.0,0.,12.0,0.,12.0
1979-03-02 18:29:42.980 ,7,0,0.,12.0,0.,12.0,0.,12.0,0.,12.0
1979-03-02 18:29:54.980 ,6,0,0.,12.0,0.,12.0,0.,12.0,0.,12.0
1979-03-02 18:30:06.980 ,6,0,0.,12.0,0.,12.0,0.,12.0,0.,12.0
1979-03-02 18:30:18.980 ,5,0,0.,12.0,0.,12.0,0.,12.0,0.,12.0
1979-03-02 18:30:30.980 ,5,0,0.,12.0,0.,12.0,0.,12.0,0.,12.0
1979-03-02 18:30:42.980 ,4,0,0.,12.0,0.,12.0,0.,12.0,0.,12.0
1979-03-02 18:30:54.980 ,4,0,0.,12.0,0.,12.0,0.,12.0,0.,12.0
1979-03-02 18:31:06.980 ,3,0,0.,12.0,0.,12.0,0.,12.0,0.,12.0
1979-03-02 18:31:18.980 ,3,0,0.,12.0,0.,12.0,0.,12.0,0.,12.0
1979-03-02 18:31:30.980 ,2,0,0.,12.0,0.,12.0,0.,12.0,0.,12.0
1979-03-02 18:31:42.980 ,2,0,0.,12.0,0.,12.0,0.,12.0,0.,12.0
1979-03-02 18:31:54.980 ,1,0,0.,12.0,0.,12.0,0.,12.0,0.,12.0
1979-03-02 18:32:06.980 ,1,0,0.,12.0,0.,12.0,0.,12.0,0.,12.0
1979-03-02 18:32:18.980 ,0,0,0.,12.0,0.,12.0,0.,12.0,0.,12.0
1979-03-02 18:32:30.980 ,0,0,0.,12.0,0.,12.0,0.,12.0,0.,12.0
1979-03-02 18:32:42.980 ,0,0,0.,12.0,0.,12.0,0.,12.0,0.,12.0
1979-03-02 18:32:54.980 ,0,0,0.,12.0,0.,12.0,0.,12.0,0.,12.0
1979-03-02 18:33:06.980 ,1,0,0.,12.0,0.,12.0,0.,12.0,0.,12.0
1979-03-02 18:33:18.980 ,1,0,0.,12.0,0.,12.0,0.,12.0,0.,12.0
1979-03-02 18:33:30.980 ,2,0,0.,12.0,0.,12.0,0.,12.0,0.,12.0
1979-03-02 18:33:42.980 ,2,0,0.,12.0,0.,12.0,0.,12.0,0.,12.0
1979-03-02 18:33:54.980 ,3,0,0.,12.0,0.,12.0,0.,12.0,0.,12.0
1979-03-02 18:34:06.980 ,3,0,0.,12.0,0.,12.0,0.,12.0,0.,12.0
1979-03-02 18:34:18.980 ,4,0,0.,12.0,0.,12.0,0.,12.0,0.,12.0
1979-03-02 18:34:30.980 ,4,0,1.,12.0,0.,12.0,0.,12.0,0.,12.0
1979-03-02 18:34:42.980 ,5,0,1.,12.0,0.,12.0,0.,12.0,0.,12.0
1979-03-02 18:34:54.980 ,5,0,0.,12.0,0.,12.0,0.,12.0,0.,12.0
1979-03-02 18:35:06.980 ,6,0,0.,12.0,0.,12.0,0.,12.0,0.,12.0
1979-03-02 18:35:18.980 ,6,0,0.,12.0,0.,12.0,0.,12.0,0.,12.0
1979-03-02 18:35:30.980 ,7,0,0.,12.0,0.,12.0,0.,12.0,0.,12.0
1979-03-02 18:35:42.980 ,7,0,0.,12.0,0.,12.0,0.,12.0,0.,12.0
1979-03-02 18:35:54.980 ,7,0,0.,12.0,0.,12.0,0.,12.0,0.,12.0
1979-03-02 18:36:06.980 ,7,0,0.,12.0,0.,12.0,0.,12.0,0.,12.0
1979-03-02 18:36:18.980 ,6,0,0.,12.0,0.,12.0,0.,12.0,0.,12.0
1979-03-02 18:36:30.980 ,6,0,0.,12.0,0.,12.0,0.,12.0,0.,12.0
1979-03-02 18:36:42.980 ,5,0,0.,12.0,0.,12.0,0.,12.0,0.,12.0
1979-03-02 18:36:54.980 ,5,0,0.,12.0,0.,12.0,0.,12.0,0.,12.0
1979-03-02 18:37:06.980 ,4,0,1.,12.0,0.,12.0,0.,12.0,0.,12.0
1979-03-02 18:37:18.980 ,4,0,0.,12.0,0.,12.0,0.,12.0,0.,12.0
1979-03-02 18:37:30.980 ,3,0,0.,12.0,0.,12.0,0.,12.0,0.,12.0
1979-03-02 18:37:42.980 ,3,0,0.,12.0,0.,12.0,0.,12.0,0.,12.0
1979-03-02 18:37:54.980 ,2,0,0.,12.0,0.,12.0,0.,12.0,0.,12.0
1979-03-02 18:38:06.980 ,2,0,0.,12.0,0.,12.0,0.,12.0,0.,12.0
1979-03-02 18:38:18.980 ,1,0,0.,12.0,0.,12.0,0.,12.0,0.,12.0
1979-03-02 18:38:30.980 ,1,0,0.,12.0,0.,12.0,0.,12.0,0.,12.0
1979-03-02 18:38:42.980 ,0,0,0.,12.0,0.,12.0,0.,12.0,0.,12.0
1979-03-02 18:38:54.980 ,0,0,0.,12.0,0.,12.0,0.,12.0,0.,12.0
1979-03-02 18:39:06.980 ,0,0,0.,12.0,0.,12.0,0.,12.0,0.,12.0
1979-03-02 18:39:18.980 ,0,0,0.,12.0,0.,12.0,0.,12.0,0.,12.0
1979-03-02 18:39:30.980 ,1,0,0.,12.0,0.,12.0,0.,12.0,0.,12.0
1979-03-02 18:39:42.980 ,1,0,0.,12.0,0.,12.0,0.,12.0,0.,12.0
1979-03-02 18:39:54.980 ,2,0,0.,12.0,0.,12.0,0.,12.0,0.,12.0
1979-03-02 18:40:06.980 ,2,0,0.,12.0,0.,12.0,0.,12.0,0.,12.0
1979-03-02 18:40:18.980 ,3,0,0.,12.0,0.,12.0,0.,12.0,0.,12.0
1979-03-02 18:40:30.980 ,3,0,0.,12.0,0.,12.0,0.,12.0,0.,12.0
1979-03-02 18:40:42.980 ,4,0,0.,12.0,0.,12.0,0.,12.0,0.,12.0
1979-03-02 18:40:54.980 ,4,0,0.,12.0,0.,12.0,0.,12.0,0.,12.0
1979-03-02 18:41:06.980 ,5,0,0.,12.0,0.,12.0,0.,12.0,0.,12.0
1979-03-02 18:41:18.980 ,5,0,0.,12.0,0.,12.0,0.,12.0,0.,12.0
1979-03-02 18:41:30.980 ,6,0,0.,12.0,0.,12.0,0.,12.0,0.,12.0
1979-03-02 18:41:42.980 ,6,0,0.,12.0,0.,12.0,0.,12.0,0.,12.0
1979-03-02 18:41:54.980 ,7,0,0.,12.0,0.,12.0,0.,12.0,0.,12.0
1979-03-02 18:42:06.980 ,7,0,0.,12.0,0.,12.0,0.,12.0,0.,12.0
1979-03-02 18:42:18.980 ,7,0,0.,12.0,0.,12.0,0.,12.0,0.,12.0
1979-03-02 18:42:30.980 ,7,0,0.,12.0,0.,12.0,0.,12.0,0.,12.0
1979-03-02 18:42:42.980 ,6,0,0.,12.0,0.,12.0,0.,12.0,0.,12.0
1979-03-02 18:42:54.980 ,6,0,0.,12.0,0.,12.0,0.,12.0,0.,12.0
1979-03-02 18:43:06.980 ,5,0,0.,12.0,0.,12.0,0.,12.0,0.,12.0
1979-03-02 18:43:18.980 ,5,0,1.,12.0,0.,12.0,0.,12.0,0.,12.0
1979-03-02 18:43:30.980 ,4,0,1.,12.0,0.,12.0,0.,12.0,0.,12.0
1979-03-02 18:43:42.980 ,4,0,0.,12.0,0.,12.0,0.,12.0,0.,12.0
1979-03-02 18:43:54.980 ,3,0,0.,12.0,0.,12.0,0.,12.0,0.,12.0
1979-03-02 18:44:06.980 ,3,0,0.,12.0,0.,12.0,0.,12.0,0.,12.0
1979-03-02 18:44:18.980 ,2,0,0.,12.0,0.,12.0,0.,12.0,0.,12.0
1979-03-02 18:44:30.980 ,2,0,0.,12.0,0.,12.0,0.,12.0,0.,12.0
1979-03-02 18:44:42.980 ,1,1,0.,12.0,0.,12.0,0.,12.0,0.,12.0
1979-03-02 18:44:54.980 ,1,1,,0,,0,,0,,0
1979-03-02 18:45:06.980 ,0,0,0.,12.0,0.,12.0,0.,12.0,0.,12.0
1979-03-02 18:45:18.980 ,0,0,0.,12.0,0.,12.0,0.,12.0,0.,12.0
1979-03-02 18:45:30.980 ,0,0,0.,12.0,0.,12.0,0.,12.0,0.,12.0
1979-03-02 18:45:42.980 ,0,0,0.,12.0,0.,12.0,0.,12.0,0.,12.0
1979-03-02 18:45:54.980 ,1,0,0.,12.0,0.,12.0,0.,12.0,0.,12.0
1979-03-02 18:46:06.980 ,1,0,0.,12.0,0.,12.0,0.,12.0,0.,12.0
1979-03-02 18:46:18.980 ,2,0,0.,12.0,0.,12.0,0.,12.0,0.,12.0
1979-03-02 18:46:30.980 ,2,0,0.,12.0,0.,12.0,0.,12.0,0.,12.0
1979-03-02 18:46:42.980 ,3,0,0.,12.0,0.,12.0,0.,12.0,0.,12.0
1979-03-02 18:46:54.980 ,3,0,0.,12.0,0.,12.0,0.,12.0,0.,12.0
1979-03-02 18:47:06.980 ,4,0,0.,12.0,0.,12.0,0.,12.0,0.,12.0
1979-03-02 18:47:18.980 ,4,0,0.,12.0,0.,12.0,0.,12.0,0.,12.0
1979-03-02 18:47:30.980 ,5,0,1.,12.0,0.,12.0,0.,12.0,0.,12.0
1979-03-02 18:47:42.980 ,5,0,2.,12.0,0.,12.0,0.,12.0,0.,12.0
1979-03-02 18:47:54.980 ,6,0,0.,12.0,0.,12.0,0.,12.0,0.,12.0
1979-03-02 18:48:06.980 ,6,0,1.,12.0,0.,12.0,0.,12.0,0.,12.0
1979-03-02 18:48:18.980 ,7,0,0.,12.0,0.,12.0,0.,12.0,0.,12.0
1979-03-02 18:48:30.980 ,7,0,0.,12.0,0.,12.0,0.,12.0,0.,12.0
1979-03-02 18:48:42.980 ,7,0,0.,12.0,0.,12.0,0.,12.0,0.,12.0
1979-03-02 18:48:54.980 ,7,0,0.,12.0,0.,12.0,0.,12.0,0.,12.0
1979-03-02 18:49:06.980 ,6,0,0.,12.0,0.,12.0,0.,12.0,0.,12.0
1979-03-02 18:49:18.980 ,6,0,2.,12.0,0.,12.0,0.,12.0,0.,12.0
1979-03-02 18:49:30.980 ,5,0,2.,12.0,0.,12.0,0.,12.0,0.,12.0
1979-03-02 18:49:42.980 ,5,0,0.,12.0,0.,12.0,0.,12.0,0.,12.0
1979-03-02 18:49:54.980 ,4,0,0.,12.0,0.,12.0,0.,12.0,0.,12.0
1979-03-02 18:50:06.980 ,4,0,0.,12.0,0.,12.0,0.,12.0,0.,12.0
1979-03-02 18:50:18.980 ,3,0,0.,12.0,0.,12.0,0.,12.0,0.,12.0
1979-03-02 18:50:30.980 ,3,0,0.,12.0,0.,12.0,0.,12.0,0.,12.0
1979-03-02 18:50:42.980 ,2,0,0.,12.0,0.,12.0,0.,12.0,0.,12.0
1979-03-02 18:50:54.980 ,2,0,0.,12.0,0.,12.0,0.,12.0,0.,12.0
1979-03-02 18:51:06.980 ,1,0,0.,12.0,0.,12.0,0.,12.0,0.,12.0
1979-03-02 18:51:18.980 ,1,0,0.,12.0,0.,12.0,0.,12.0,0.,12.0
1979-03-02 18:51:30.980 ,0,0,0.,12.0,0.,12.0,0.,12.0,0.,12.0
1979-03-02 18:51:42.980 ,0,0,0.,12.0,0.,12.0,0.,12.0,0.,12.0
1979-03-02 18:51:54.980 ,0,0,0.,12.0,0.,12.0,0.,12.0,0.,12.0
1979-03-02 18:52:06.980 ,0,0,0.,12.0,0.,12.0,0.,12.0,0.,12.0
1979-03-02 18:52:18.980 ,1,0,0.,12.0,0.,12.0,0.,12.0,0.,12.0
1979-03-02 18:52:30.980 ,1,0,0.,12.0,0.,12.0,0.,12.0,0.,12.0
1979-03-02 18:52:42.980 ,2,0,0.,12.0,0.,12.0,0.,12.0,0.,12.0
1979-03-02 18:52:54.980 ,2,0,0.,12.0,0.,12.0,0.,12.0,0.,12.0
1979-03-02 18:53:06.980 ,3,0,0.,12.0,0.,12.0,0.,12.0,0.,12.0
1979-03-02 18:53:18.980 ,3,0,0.,12.0,0.,12.0,0.,12.0,0.,12.0
1979-03-02 18:53:30.980 ,4,0,0.,12.0,0.,12.0,0.,12.0,0.,12.0
1979-03-02 18:53:42.980 ,4,0,2.,12.0,0.,12.0,0.,12.0,0.,12.0
1979-03-02 18:53:54.980 ,5,0,0.,12.0,0.,12.0,0.,12.0,0.,12.0
1979-03-02 18:54:06.980 ,5,0,0.,12.0,0.,12.0,0.,12.0,0.,12.0
1979-03-02 18:54:18.980 ,6,0,0.,12.0,0.,12.0,0.,12.0,0.,12.0
1979-03-02 18:54:30.980 ,6,0,0.,12.0,0.,12.0,0.,12.0,0.,12.0
1979-03-02 18:54:42.980 ,7,0,0.,12.0,0.,12.0,0.,12.0,0.,12.0
1979-03-02 18:54:54.980 ,7,0,0.,12.0,0.,12.0,0.,12.0,0.,12.0
1979-03-02 18:55:06.980 ,7,0,0.,12.0,0.,12.0,0.,12.0,0.,12.0
1979-03-02 18:55:18.980 ,7,0,0.,12.0,0.,12.0,0.,12.0,0.,12.0
1979-03-02 18:55:30.980 ,6,0,0.,12.0,0.,12.0,0.,12.0,0.,12.0
1979-03-02 18:55:42.980 ,6,0,0.,12.0,0.,12.0,0.,12.0,0.,12.0
1979-03-02 18:55:54.980 ,5,0,0.,12.0,0.,12.0,0.,12.0,0.,12.0
1979-03-02 18:56:06.980 ,5,0,0.,12.0,0.,12.0,0.,12.0,0.,12.0
1979-03-02 18:56:18.980 ,4,0,0.,12.0,0.,12.0,0.,12.0,0.,12.0
1979-03-02 18:56:30.980 ,4,0,0.,12.0,0.,12.0,0.,12.0,0.,12.0
1979-03-02 18:56:42.980 ,3,0,0.,12.0,0.,12.0,0.,12.0,0.,12.0
1979-03-02 18:56:54.980 ,3,0,0.,12.0,0.,12.0,0.,12.0,0.,12.0
1979-03-02 18:57:06.980 ,2,0,0.,12.0,0.,12.0,0.,12.0,0.,12.0
1979-03-02 18:57:18.980 ,2,0,0.,12.0,0.,12.0,0.,12.0,0.,12.0
1979-03-02 18:57:30.980 ,1,0,0.,12.0,0.,12.0,0.,12.0,0.,12.0
1979-03-02 18:57:42.980 ,1,0,0.,12.0,0.,12.0,0.,12.0,0.,12.0
1979-03-02 18:57:54.980 ,0,0,0.,12.0,0.,12.0,0.,12.0,0.,12.0
1979-03-02 18:58:06.980 ,0,0,0.,12.0,0.,12.0,0.,12.0,0.,12.0
1979-03-02 18:58:18.980 ,0,0,1.,12.0,0.,12.0,0.,12.0,0.,12.0
1979-03-02 18:58:30.980 ,0,0,0.,12.0,0.,12.0,0.,12.0,0.,12.0
1979-03-02 18:58:42.980 ,1,0,0.,12.0,0.,12.0,0.,12.0,0.,12.0
1979-03-02 18:58:54.980 ,1,0,0.,12.0,0.,12.0,0.,12.0,0.,12.0
1979-03-02 18:59:06.980 ,2,0,0.,12.0,0.,12.0,0.,12.0,0.,12.0
1979-03-02 18:59:18.980 ,2,0,0.,12.0,0.,12.0,0.,12.0,0.,12.0
1979-03-02 18:59:30.980 ,3,0,0.,12.0,0.,12.0,0.,12.0,0.,12.0
1979-03-02 18:59:42.980 ,3,0,0.,12.0,0.,12.0,0.,12.0,0.,12.0
1979-03-02 18:59:54.980 ,4,0,0.,12.0,0.,12.0,0.,12.0,0.,12.0
1979-03-02 19:00:06.980 ,4,0,0.,12.0,0.,12.0,0.,12.0,0.,12.0
1979-03-02 19:00:18.980 ,5,0,0.,12.0,0.,12.0,0.,12.0,0.,12.0
1979-03-02 19:00:30.980 ,5,0,0.,12.0,0.,12.0,0.,12.0,0.,12.0
1979-03-02 19:00:42.980 ,6,0,0.,12.0,0.,12.0,0.,12.0,0.,12.0
1979-03-02 19:00:54.980 ,6,0,0.,12.0,0.,12.0,0.,12.0,0.,12.0
1979-03-02 19:01:06.980 ,7,0,1.,12.0,0.,12.0,0.,12.0,0.,12.0
1979-03-02 19:01:18.980 ,7,0,0.,12.0,0.,12.0,0.,12.0,0.,12.0
1979-03-02 19:01:30.980 ,7,0,0.,12.0,0.,12.0,0.,12.0,0.,12.0
1979-03-02 19:01:42.980 ,7,0,0.,12.0,0.,12.0,0.,12.0,0.,12.0
1979-03-02 19:01:54.980 ,6,0,0.,12.0,0.,12.0,0.,12.0,0.,12.0
1979-03-02 19:02:06.980 ,6,0,0.,12.0,0.,12.0,0.,12.0,0.,12.0
1979-03-02 19:02:18.980 ,5,0,0.,12.0,0.,12.0,0.,12.0,0.,12.0
1979-03-02 19:02:30.980 ,5,0,0.,12.0,0.,12.0,0.,12.0,0.,12.0
1979-03-02 19:02:42.980 ,4,0,1.,12.0,0.,12.0,0.,12.0,0.,12.0
1979-03-02 19:02:54.980 ,4,0,0.,12.0,0.,12.0,0.,12.0,0.,12.0
1979-03-02 19:03:06.980 ,3,0,0.,12.0,0.,12.0,0.,12.0,0.,12.0
1979-03-02 19:03:18.980 ,3,0,0.,12.0,0.,12.0,0.,12.0,0.,12.0
1979-03-02 19:03:30.980 ,2,0,0.,12.0,0.,12.0,0.,12.0,0.,12.0
1979-03-02 19:03:42.980 ,2,0,0.,12.0,0.,12.0,0.,12.0,0.,12.0
1979-03-02 19:03:54.980 ,1,0,0.,12.0,0.,12.0,0.,12.0,0.,12.0
1979-03-02 19:04:06.980 ,1,0,0.,12.0,0.,12.0,0.,12.0,0.,12.0
1979-03-02 19:04:18.980 ,0,0,0.,12.0,0.,12.0,0.,12.0,0.,12.0
1979-03-02 19:04:30.980 ,0,0,0.,12.0,0.,12.0,0.,12.0,0.,12.0
1979-03-02 19:04:42.980 ,0,0,0.,12.0,0.,12.0,0.,12.0,0.,12.0
1979-03-02 19:04:54.980 ,0,0,0.,12.0,0.,12.0,0.,12.0,0.,12.0
1979-03-02 19:05:06.980 ,1,0,0.,12.0,0.,12.0,0.,12.0,0.,12.0
1979-03-02 19:05:18.980 ,1,0,0.,12.0,0.,12.0,0.,12.0,0.,12.0
1979-03-02 19:05:30.980 ,2,1,0.,12.0,0.,12.0,0.,12.0,0.,12.0
1979-03-02 19:05:42.980 ,2,1,,0,,0,,0,,0
1979-03-02 19:05:54.980 ,3,0,0.,12.0,0.,12.0,0.,12.0,0.,12.0
1979-03-02 19:06:06.980 ,3,0,0.,12.0,0.,12.0,0.,12.0,0.,12.0
1979-03-02 19:06:18.980 ,4,0,0.,12.0,0.,12.0,0.,12.0,0.,12.0
1979-03-02 19:06:30.980 ,4,0,0.,12.0,0.,12.0,0.,12.0,0.,12.0
1979-03-02 19:06:42.980 ,5,0,0.,12.0,0.,12.0,0.,12.0,0.,12.0
1979-03-02 19:06:54.980 ,5,0,0.,12.0,0.,12.0,0.,12.0,0.,12.0
1979-03-02 19:07:06.980 ,6,0,1.,12.0,0.,12.0,0.,12.0,0.,12.0
1979-03-02 19:07:18.980 ,6,0,2.,12.0,0.,12.0,0.,12.0,0.,12.0
1979-03-02 19:07:30.980 ,7,0,1.,12.0,0.,12.0,0.,12.0,0.,12.0
1979-03-02 19:07:42.980 ,7,0,0.,12.0,0.,12.0,0.,12.0,0.,12.0
1979-03-02 19:07:54.980 ,7,0,0.,12.0,0.,12.0,0.,12.0,0.,12.0
1979-03-02 19:08:06.980 ,7,0,0.,12.0,0.,12.0,0.,12.0,0.,12.0
1979-03-02 19:08:18.980 ,6,0,0.,12.0,0.,12.0,0.,12.0,0.,12.0
1979-03-02 19:08:30.980 ,6,0,0.,12.0,0.,12.0,0.,12.0,0.,12.0
1979-03-02 19:08:42.980 ,5,0,1.,12.0,0.,12.0,0.,12.0,0.,12.0
1979-03-02 19:08:54.980 ,5,0,1.,12.0,0.,12.0,0.,12.0,0.,12.0
1979-03-02 19:09:06.980 ,4,0,0.,12.0,0.,12.0,0.,12.0,0.,12.0
1979-03-02 19:09:18.980 ,4,0,1.,12.0,0.,12.0,0.,12.0,0.,12.0
1979-03-02 19:09:30.980 ,3,0,0.,12.0,0.,12.0,0.,12.0,0.,12.0
1979-03-02 19:09:42.980 ,3,0,0.,12.0,0.,12.0,0.,12.0,0.,12.0
1979-03-02 19:09:54.980 ,2,0,0.,12.0,0.,12.0,0.,12.0,0.,12.0
1979-03-02 19:10:06.980 ,2,0,0.,12.0,0.,12.0,0.,12.0,0.,12.0
1979-03-02 19:10:18.980 ,1,0,0.,12.0,0.,12.0,0.,12.0,0.,12.0
1979-03-02 19:10:30.980 ,1,0,0.,12.0,0.,12.0,0.,12.0,0.,12.0
1979-03-02 19:10:42.980 ,0,0,0.,12.0,0.,12.0,0.,12.0,0.,12.0
1979-03-02 19:10:54.980 ,0,0,0.,12.0,0.,12.0,0.,12.0,0.,12.0
1979-03-02 19:11:06.980 ,0,0,0.,12.0,0.,12.0,0.,12.0,0.,12.0
1979-03-02 19:11:18.980 ,0,0,0.,12.0,0.,12.0,0.,12.0,0.,12.0
1979-03-02 19:11:30.980 ,1,0,0.,12.0,0.,12.0,0.,12.0,0.,12.0
1979-03-02 19:11:42.980 ,1,0,0.,12.0,0.,12.0,0.,12.0,0.,12.0
1979-03-02 19:11:54.980 ,2,0,0.,12.0,0.,12.0,0.,12.0,0.,12.0
1979-03-02 19:12:06.980 ,2,0,0.,12.0,0.,12.0,0.,12.0,0.,12.0
1979-03-02 19:12:18.980 ,3,0,0.,12.0,0.,12.0,0.,12.0,0.,12.0
1979-03-02 19:12:30.980 ,3,0,0.,12.0,0.,12.0,0.,12.0,0.,12.0
1979-03-02 19:12:42.980 ,4,0,0.,12.0,0.,12.0,0.,12.0,0.,12.0
1979-03-02 19:12:54.980 ,4,0,1.,12.0,0.,12.0,0.,12.0,0.,12.0
1979-03-02 19:13:06.980 ,5,0,0.,12.0,0.,12.0,0.,12.0,0.,12.0
1979-03-02 19:13:18.980 ,5,0,1.,12.0,0.,12.0,0.,12.0,0.,12.0
1979-03-02 19:13:30.980 ,6,0,0.,12.0,0.,12.0,0.,12.0,0.,12.0
1979-03-02 19:13:42.980 ,6,0,0.,12.0,0.,12.0,0.,12.0,0.,12.0
1979-03-02 19:13:54.980 ,7,0,1.,12.0,0.,12.0,0.,12.0,0.,12.0
1979-03-02 19:14:06.980 ,7,0,0.,12.0,0.,12.0,0.,12.0,0.,12.0
1979-03-02 19:14:18.980 ,7,0,0.,12.0,0.,12.0,0.,12.0,0.,12.0
1979-03-02 19:14:30.980 ,7,0,0.,12.0,0.,12.0,0.,12.0,0.,12.0
1979-03-02 19:14:42.980 ,6,0,0.,12.0,0.,12.0,0.,12.0,0.,12.0
1979-03-02 19:14:54.980 ,6,0,0.,12.0,0.,12.0,0.,12.0,0.,12.0
1979-03-02 19:15:06.980 ,5,0,1.,12.0,0.,12.0,0.,12.0,0.,12.0
1979-03-02 19:15:18.980 ,5,0,0.,12.0,0.,12.0,0.,12.0,0.,12.0
1979-03-02 19:15:30.980 ,4,0,0.,12.0,0.,12.0,0.,12.0,0.,12.0
1979-03-02 19:15:42.980 ,4,0,1.,12.0,0.,12.0,0.,12.0,0.,12.0
1979-03-02 19:15:54.980 ,3,0,1.,12.0,0.,12.0,0.,12.0,0.,12.0
1979-03-02 19:16:06.980 ,3,0,0.,12.0,0.,12.0,0.,12.0,0.,12.0
1979-03-02 19:16:18.980 ,2,0,0.,12.0,0.,12.0,0.,12.0,0.,12.0
1979-03-02 19:16:30.980 ,2,0,0.,12.0,0.,12.0,0.,12.0,0.,12.0
1979-03-02 19:16:42.980 ,1,0,0.,12.0,0.,12.0,0.,12.0,0.,12.0
1979-03-02 19:16:54.980 ,1,0,0.,12.0,0.,12.0,0.,12.0,0.,12.0
1979-03-02 19:17:06.980 ,0,0,0.,12.0,0.,12.0,0.,12.0,0.,12.0
1979-03-02 19:17:18.980 ,0,0,0.,12.0,0.,12.0,0.,12.0,0.,12.0